Weather Roundup
Issued by NWS Chicago, IL

Home | Current Version | Previous Version | Text Only | Print | Product List | Glossary On
Versions: 1 2 3 4 5 6 7 8 9 10 11 12 13 14 15 16 17 18 19 20 21 22 23 24 25 26 27 28 29 30 31 32 33 34 35 36 37 38 39 40 41 42 43 44 45 46 47 48 49 50
000
NZUS59 KLOT 300709
HRRLOT

CHICAGO AREA WEATHER ROUNDUP
NATIONAL WEATHER SERVICE CHICAGO/ROMEOVILLE IL
200 AM CDT TUE MAY 30 2017

NOTE: "FAIR" INDICATES FEW OR NO CLOUDS BELOW 12,000 FEET WITH NO
SIGNIFICANT WEATHER AND/OR OBSTRUCTIONS TO VISIBILITY.

* THESE STATIONS ARE NOT UNDER NWS QUALITY CONTROL. THEY ALSO MAY NOT
  REPORT WEATHER SUCH AS PRECIPITATION OR FOG.

ILZ005-006-012>014-019>023-300800-
NORTHEAST ILLINOIS

CITY           SKY/WX    TMP DP  RH WIND       PRES   REMARKS
OHARE          PTCLDY    58  47  66 SW3       29.90S
MIDWAY         CLEAR     61  46  57 W7        29.90S
AURORA         MOCLDY    53  47  79 W7        29.92S
LANSING*       CLEAR     55  49  79 SW5       29.92R
JOLIET*        CLEAR     60  48  63 W3        29.93R
WAUKEGAN       CLEAR     54  51  90 SW3       29.88S
DUPAGE AIRPORT CLEAR     53  48  83 SW3       29.91R
WHEELING       CLEAR     58  48  69 SW3       29.91R
KANKAKEE*      CLEAR     55  46  69 CALM      29.94S
MORRIS*        CLEAR     55  46  72 CALM      29.92S
LEWIS AIRPORT* PTCLDY    57  50  78 W8        29.92S
NORTHERLY ISL    N/A     56  51  84 CALM        N/A
$$

WIZ051-052-058>065-066-070>072-300800-
SOUTHEAST WISCONSIN

CITY           SKY/WX    TMP DP  RH WIND       PRES   REMARKS
MILWAUKEE      CLEAR     57  49  74 W9        29.87S
KENOSHA*       CLEAR     53  48  83 SW7       29.88R
RACINE*        CLEAR     54  46  74 SW6       29.89R
WAUKESHA       CLEAR     50  46  87 SW6       29.88R
WEST BEND      CLEAR     52  48  87 SW5       29.85S
$$

INZ001>003-010>013-019-020-300800-
NORTHWEST INDIANA

CITY           SKY/WX    TMP DP  RH WIND       PRES   REMARKS
GARY*          CLEAR     60  46  59 SW5       29.92R
MICHIGAN CITY* NOT AVBL
RENSSELAER*    NOT AVBL
VALPARAISO     PTCLDY    58  47  66 SW6       29.92S
$$

LMZ740>746-300800-
SOUTHERN LAKE MICHIGAN

STATION/POSITION TIME  SKY/WX   TEMP WIND        PRES    VSBY
                                AIR  DIR/SP/G
                 (UTC)          (F)  (DEG/KT/KT) (MB)    (MI)
HARRISON CRIB    0640            59  160/  2/  2   N/A
BURNHAM HARBOR   0700            56   CALM  /  4   N/A
CALUMET HARBOR   0648                240/  3/  5 1012.3R
BURNS HARBOR     0640            61   CALM  /  2 1013.2S
MICHIGAN CITY    0640            59  140/  3/  4   N/A
$$

ABBREVIATIONS USED IN REMARKS
   TC - TEMPERATURE IN CELSIUS
  WCI - WIND CHILL INDEX
   HX - HEAT INDEX
  VSB - VISIBILITY
$$




USA.gov is the U.S. government's official web portal to all federal, state and local government web resources and services.